Weather History for New York JFK, NY

Change the Weather History Date:

Saturday, February 9, 2013

  Actual Average Record
Temperature  
Mean Temperature 27 °F 34 °F  
Max Temperature 32 °F 41 °F 60 °F (1949)
Min Temperature 21 °F 27 °F 8 °F (1979)
Degree Days  
Heating Degree Days 38 31  
Month to date heating degree days 323 284  
Since 1 July heating degree days 2793 2954  
Cooling Degree Days 0 0  
Month to date cooling degree days 0 0  
Year to date cooling degree days 0 0  
Moisture  
Dew Point 16 °F    
Average Humidity 64    
Maximum Humidity 92    
Minimum Humidity 35    
Precipitation  
Precipitation 0.40 in 0.09 in 2.46 in (1969)
Month to date precipitation 1.24 0.80  
Year to date precipitation 3.63 3.96  
Snow  
Snow 0.00 in 0.30 in 19.90 in (1969)
Month to date snowfall 3.9 2.7  
Since 1 July snowfall 9.7 13.9  
Snow Depth 6.00 in    
Sea Level Pressure  
Sea Level Pressure 29.98 in    
Wind  
Wind Speed 20 mph (NW)    
Max Wind Speed 31 mph    
Max Gust Speed 39 mph    
Visibility 7 miles    
Events Fog , Snow    
T = Trace of Precipitation, MM = Missing Value Source: NWS Daily Summary

Daily Weather History Graph

Daily Weather History Graph

Search for Another Location

Airport:

Trip Planner

Search our weather history database for the weather conditions in past years. The results will help you decide how hot, cold, wet, or windy it might be!

Date:

Astronomy

Feb. 09, 2013 Rise Set
Actual Time 6:56 AM EST 5:23 PM EST
Civil Twilight 6:27 AM EST 5:51 PM EST
Nautical Twilight 5:55 AM EST 6:23 PM EST
Astronomical Twilight 5:23 AM EST 6:55 PM EST
Moon 6:05 AM EST (2/9) 5:02 PM EST (2/9)
Length of Visible Light 11h 23m
Length of Day
10h 27m
Waning Crescent, 0% of the Moon is Illuminated
Feb 9
Waning Crescent
Feb 10
New
Feb 17
First Quarter
Feb 25
Full
Mar 4
Last Quarter

Hourly Weather History & Observations

Time (EST) Temp. Windchill Dew Point Humidity Pressure Visibility Wind Dir Wind Speed Gust Speed Precip Events Conditions
12:34 AM 26.6 °F 12.4 °F 24.8 °F 93% 29.75 in 0.5 mi NNW 21.9 mph - 0.03 in Snow Snow
12:51 AM 26.1 °F 11.6 °F 24.1 °F 92% 29.76 in 0.5 mi NNW 21.9 mph 31.1 mph 0.03 in Snow Snow
1:51 AM 27.0 °F 14.3 °F 24.1 °F 89% 29.78 in 0.5 mi NNW 17.3 mph - 0.02 in Snow Snow
2:51 AM 27.0 °F 15.2 °F 25.0 °F 92% 29.78 in 0.5 mi NW 15.0 mph - 0.07 in Fog , Snow Snow
3:28 AM 26.6 °F 13.4 °F 24.8 °F 93% 29.79 in 0.5 mi North 18.4 mph 25.3 mph 0.03 in Fog , Snow Snow
3:47 AM 26.6 °F 12.4 °F 24.8 °F 93% 29.80 in 0.5 mi NNW 21.9 mph 28.8 mph 0.05 in Fog , Snow Snow
3:51 AM 26.1 °F 13.1 °F 24.1 °F 92% 29.80 in 0.5 mi NNW 17.3 mph 27.6 mph 0.05 in Fog , Snow Snow
4:09 AM 26.6 °F 14.3 °F 24.8 °F 93% 29.81 in 0.5 mi NNW 16.1 mph - 0.01 in Snow Light Snow
4:32 AM 26.6 °F 12.4 °F 24.8 °F 93% 29.82 in 3.0 mi NNW 21.9 mph 31.1 mph 0.01 in Snow Light Snow
4:51 AM 27.0 °F 14.7 °F 23.0 °F 85% 29.82 in 3.0 mi NNW 16.1 mph 26.5 mph 0.01 in Snow Light Snow
5:23 AM 28.4 °F 18.5 °F 24.8 °F 86% 29.82 in 9.0 mi NW 11.5 mph - 0.00 in   Overcast
5:51 AM 28.9 °F 15.8 °F 23.0 °F 78% 29.83 in 10.0 mi NW 20.7 mph 25.3 mph 0.00 in   Mostly Cloudy
6:51 AM 28.9 °F 14.3 °F 21.9 °F 75% 29.85 in 10.0 mi NW 26.5 mph 32.2 mph 0.00 in   Overcast
7:51 AM 30.0 °F 17.9 °F 21.9 °F 72% 29.88 in 10.0 mi WNW 18.4 mph 26.5 mph N/A   Mostly Cloudy
8:51 AM 28.9 °F 15.4 °F 19.0 °F 67% 29.91 in 10.0 mi NW 21.9 mph 34.5 mph N/A   Mostly Cloudy
9:51 AM 27.0 °F 11.9 °F 18.0 °F 69% 29.94 in 10.0 mi NW 25.3 mph 34.5 mph N/A   Mostly Cloudy
10:51 AM 26.1 °F 9.8 °F 16.0 °F 66% 29.99 in 10.0 mi WNW 28.8 mph 34.5 mph N/A   Mostly Cloudy
11:51 AM 28.0 °F 14.3 °F 17.1 °F 63% 30.00 in 10.0 mi NW 21.9 mph 32.2 mph N/A   Mostly Cloudy
12:51 PM 30.0 °F 15.2 °F 15.1 °F 54% 30.01 in 10.0 mi NW 28.8 mph 36.8 mph N/A   Scattered Clouds
1:51 PM 30.9 °F 16.9 °F 12.9 °F 47% 30.03 in 10.0 mi NNW 26.5 mph 34.5 mph N/A   Scattered Clouds
2:51 PM 32.0 °F 18.6 °F 12.0 °F 44% 30.06 in 10.0 mi NW 25.3 mph 31.1 mph N/A   Scattered Clouds
3:51 PM 30.9 °F 18.1 °F 10.0 °F 42% 30.08 in 10.0 mi NW 21.9 mph 33.4 mph 0.00 in   Partly Cloudy
4:51 PM 30.0 °F 18.3 °F 9.0 °F 41% 30.12 in 10.0 mi NW 17.3 mph - N/A   Clear
5:51 PM 28.9 °F 14.5 °F 5.0 °F 36% 30.17 in 10.0 mi NNW 25.3 mph 31.1 mph 0.00 in   Clear
6:51 PM 28.0 °F 14.6 °F 5.0 °F 38% 30.20 in 10.0 mi NW 20.7 mph 26.5 mph N/A   Clear
7:51 PM 26.1 °F 12.3 °F 6.1 °F 43% 30.23 in 10.0 mi NW 19.6 mph - N/A   Clear
8:51 PM 25.0 °F 13.1 °F 5.0 °F 43% 30.27 in 10.0 mi NW 13.8 mph - N/A   Clear
9:51 PM 24.1 °F 12.0 °F 5.0 °F 44% 30.31 in 10.0 mi NW 13.8 mph - N/A   Clear
10:51 PM 21.0 °F 9.9 °F 5.0 °F 50% 30.32 in 10.0 mi NW 10.4 mph - N/A   Clear
11:51 PM 21.9 °F 8.7 °F 5.0 °F 48% 30.35 in 10.0 mi WNW 15.0 mph - N/A   Clear